Simultaneous Nadir Overpasses (SNOs) Predictions

Prediction of SNOs between NPP and TERRA Satellite Orbit:

Table of predicted SNOs for the next 14.0 days since TLE Epoch: 8/13/2014
Index Date (NPP) Time (NPP) Lat,Lon (NPP) SZA (NPP ) Date (TERRA) Time (TERRA) Lat,Lon (TERRA) SZA (TERRA ) Distance(km) Time Diff (sec)
1 08/14/2014 13:26:00 69.94, -23.17 55.59 08/14/2014 13:27:07 69.87, -21.15 55.48 77.69 67
2 08/14/2014 14:16:27 -69.06, 145.42 125.31 08/14/2014 14:16:50 -69.04, 145.37 125.34 3.38 23
3 08/14/2014 15:07:11 68.93, -47.09 54.57 08/14/2014 15:06:17 68.93, -47.12 54.57 1.17 54
4 08/17/2014 05:42:45 69.12, 93.79 55.58 08/17/2014 05:43:51 69.14, 93.74 55.60 3.06 66
5 08/17/2014 06:33:27 -69.03, -98.77 124.50 08/17/2014 06:33:21 -69.03, -98.76 124.50 0.46 6
6 08/17/2014 07:24:05 68.58, 69.15 55.06 08/17/2014 07:22:53 68.64, 68.39 55.13 31.44 72
7 08/19/2014 21:59:44 69.09,-150.41 56.42 08/19/2014 22:00:21 69.11,-150.42 56.44 2.55 37
8 08/19/2014 22:50:26 -69.00, 17.02 123.66 08/19/2014 22:49:51 -69.01, 17.08 123.66 2.43 35
9 08/22/2014 13:26:09 -69.67, 157.21 122.11 08/22/2014 13:27:19 -69.52, 158.35 122.28 47.43 70
10 08/22/2014 14:16:44 69.07, -34.62 57.29 08/22/2014 14:16:52 69.08, -34.59 57.29 1.44 8
11 08/22/2014 15:07:25 -68.93, 132.89 122.85 08/22/2014 15:06:23 -68.92, 132.84 122.85 2.05 62
12 08/25/2014 05:42:59 -69.12, -86.24 121.76 08/25/2014 05:43:56 -69.15, -86.27 121.74 2.68 57
13 08/25/2014 06:33:44 69.05, 81.17
